Search :
Type the text to search here
and press Enter.
This will search in all fields
of the database.

Click on Search : to go to the advanced search page.
Mkt: Check this box if you want
to search in classified
instead of the database.

Z Scale Model Trains Database

Engines, Rolling Stock, Structures, and Accessories

Noch Sample Layout

Z-Scale Model Trains

Z-Scale is a dimensional relationships of 1/220. All share in common a railroad gauge of 6.5mm (0.256 in). Z-Scale Train Modeling is a hobby concerned with the recreation, display and operation of railway equipment in miniature. Z-Scale is sometimes also referred to as Z-Gauge. Z scale (1:220) was introduced by the Märklin company in 1972, and is one of the smallest commercially available model railway scales.

Z scale trains operate on 0-10 volts direct current and offer the same operating characteristics as all other two-rail, direct-current, analog model railways. Locomotives can be fitted with digital decoders for independent control. Model trains, track, structures, and human/animal figures are readily available in European, North American, and Japanese styles from a variety of manufacturers. Originally running on 8 Volts DC, track voltage was increased to 10 Volts DC around the year 2000. Accessory power has always been 10 Volts AC.
JavaScript is disabled in your browser. This page will not work properly.

Body Style:
Brand:
Manufacturer:
Road or Company Name:
Series Name:
Model Type:
Total items in collection: 1955. Total items on page 60

First Image Brand Stock Number Road or Company Name Reporting Marks Road or Reporting Number Prototype Original Retail Price Market Release Date ID
Micro-Trains 970 00 201 British Columbia 753 Locomotive, Diesel, EMD SD40-2 2013-01-01 162416
Micro-Trains 970 00 202 British Columbia 756 Locomotive, Diesel, EMD SD40-2 2013-01-01 162417
Micro-Trains 970 01 011 CSX Transportation 8014 Locomotive, Diesel, EMD SD40-2 $185.95 2009-09-01 160697
Micro-Trains 970 01 012 CSX Transportation 8033 Locomotive, Diesel, EMD SD40-2 $185.95 2009-09-01 160698
Micro-Trains 970 01 021 Burlington Northern 6701 Locomotive, Diesel, EMD SD40-2 $195.95 2009-10-01 160761
Micro-Trains 970 01 022 Burlington Northern 6704 Locomotive, Diesel, EMD SD40-2 $195.95 2009-10-01 160762
Micro-Trains 970 01 031 Kansas City Southern KCS 641 Locomotive, Diesel, EMD SD40-2 $185.95 2009-11-01 160772
Micro-Trains 970 01 032 Kansas City Southern KCS 646 Locomotive, Diesel, EMD SD40-2 $185.95 2009-11-01 160773
Micro-Trains 970 01 032 Kansas City Southern KCS 646 Locomotive, Diesel, EMD SD40-2 $185.95 2009-11-01 160774
Micro-Trains 970 01 032 Kansas City Southern KCS 646 Locomotive, Diesel, EMD SD40-2 $185.95 2009-11-01 160775
Micro-Trains 970 01 040 Canadian Pacific CP 5415 Locomotive, Diesel, EMD SD40-2 $185.95 2009-12-01 160785
Micro-Trains 970 01 050 Canadian Pacific CP 5420 Locomotive, Diesel, EMD SD40-2 $185.95 2009-12-01 160786
Micro-Trains 970 01 071 Conrail 6382 Locomotive, Diesel, EMD SD40-2 2010-02-01 161000
Micro-Trains 970 01 072 Conrail 6434 Locomotive, Diesel, EMD SD40-2 2010-02-01 161001
Micro-Trains 970 01 081 Union Pacific 3725 Locomotive, Diesel, EMD SD40-2 2010-03-01 161012
Micro-Trains 970 01 082 Union Pacific 3747 Locomotive, Diesel, EMD SD40-2 E:$195.95 2010-03-01 161013
Micro-Trains 970 01 091 Santa Fe 5036 Locomotive, Diesel, EMD SD40-2 $225.95 2019-01-01 151332
Micro-Trains 970 01 091 Santa Fe 5054 Locomotive, Diesel, EMD SD40-2 2010-06-01 161099
Micro-Trains 970 01 092 Santa Fe 5039 Locomotive, Diesel, EMD SD40-2 $225.95 E:$147.56 2019-01-01 151333
Micro-Trains 970 01 092 Santa Fe 5056 Locomotive, Diesel, EMD SD40-2 2010-06-01 161100
Micro-Trains 970 01 101 Milwaukee Road 163 Locomotive, Diesel, EMD SD40-2 2010-07-01 161189
Micro-Trains 970 01 102 Milwaukee Road 167 Locomotive, Diesel, EMD SD40-2 2010-07-01 161190
Micro-Trains 970 01 110 Southern Pacific SP 7325 Locomotive, Diesel, EMD SD40-2 2010-10-01 161283
Micro-Trains 970 01 121 Missouri-Kansas-Texas MKT 619 Locomotive, Diesel, EMD SD40-2 2011-11-01 161865
Micro-Trains 970 01 122 Missouri-Kansas-Texas MKT 24 Locomotive, Diesel, EMD SD40-2 2011-11-01 161869
Micro-Trains 970 01 122 Missouri-Kansas-Texas MKT 24 Locomotive, Diesel, EMD SD40-2 2011-11-01 161870
Micro-Trains 970 01 122 Missouri-Kansas-Texas MKT 24 Locomotive, Diesel, EMD SD40-2 2011-11-01 161871
Micro-Trains 970 01 122 Missouri-Kansas-Texas MKT 24 Locomotive, Diesel, EMD SD40-2 2011-11-01 161872
Micro-Trains 970 01 122 Missouri-Kansas-Texas MKT 24 Locomotive, Diesel, EMD SD40-2 2011-11-01 161873
Micro-Trains 970 01 122 Missouri-Kansas-Texas MKT 24 Locomotive, Diesel, EMD SD40-2 2011-11-01 161874
Micro-Trains 970 01 122 Missouri-Kansas-Texas MKT 24 Locomotive, Diesel, EMD SD40-2 2011-11-01 161875
Micro-Trains 970 01 122 Missouri-Kansas-Texas MKT 24 Locomotive, Diesel, EMD SD40-2 2011-11-01 161876
Micro-Trains 970 01 122 Missouri-Kansas-Texas MKT 24 Locomotive, Diesel, EMD SD40-2 2011-11-01 161866
Micro-Trains 970 01 122 Missouri-Kansas-Texas MKT 24 Locomotive, Diesel, EMD SD40-2 2011-11-01 161867
Micro-Trains 970 01 122 Missouri-Kansas-Texas MKT 24 Locomotive, Diesel, EMD SD40-2 2011-11-01 161878
Micro-Trains 970 01 122 Missouri-Kansas-Texas MKT 24 Locomotive, Diesel, EMD SD40-2 2011-11-01 161868
Micro-Trains 970 01 122 Missouri-Kansas-Texas MKT 624 Locomotive, Diesel, EMD SD40-2 2011-11-01 161877
Micro-Trains 970 01 131 Chicago & North Western CNW 6823 Locomotive, Diesel, EMD SD40-2 2012-02-01 161906
Micro-Trains 970 01 132 Chicago & North Western CNW 6829 Locomotive, Diesel, EMD SD40-2 2012-02-01 161907
Micro-Trains 970 01 141 CSX Transportation CSX 8071 Locomotive, Diesel, EMD SD40-2 2011-12-01 161890
Micro-Trains 970 01 142 CSX Transportation CSX 8078 Locomotive, Diesel, EMD SD40-2 2011-12-01 161891
Micro-Trains 970 01 151 Canadian National CN 5367 Locomotive, Diesel, EMD SD40-2 2012-01-01 161897
Micro-Trains 970 01 152 Canadian National CN Locomotive, Diesel, EMD SD40-2 2012-01-01 161898
Micro-Trains 970 01 160 SOO Line 6609 Locomotive, Diesel, EMD SD40-2 2012-07-01 162094
Micro-Trains 970 01 161 Norfolk Southern 1642 Locomotive, Diesel, EMD SD40-2 E:$175.00 2010-01-01 160977
Micro-Trains 970 01 162 Norfolk Southern 1652 Locomotive, Diesel, EMD SD40-2 E:$175.00 2010-01-01 160978
Micro-Trains 970 01 170 SOO Line 784 Locomotive, Diesel, EMD SD40-2 E:$189.00 2012-07-01 162095
Micro-Trains 970 01 181 Canadian Pacific CP 5582 Locomotive, Diesel, EMD SD40-2 2012-10-01 162275
Micro-Trains 970 01 182 Canadian Pacific CP 5583 Locomotive, Diesel, EMD SD40-2 2012-10-01 162276
Micro-Trains 970 01 191 Missouri Pacific 6002 Locomotive, Diesel, EMD SD40-2 2012-12-01 162392
Micro-Trains 970 01 192 Missouri Pacific 6070 Locomotive, Diesel, EMD SD40-2 2012-12-01 162393
Micro-Trains 970 01 251 Southern Pacific 7300 Locomotive, Diesel, EMD SD40-2 $210.95 E:$149.98 2019-02-01 152816
Micro-Trains 970 01 251 Southern Pacific 7300 Locomotive, Diesel, EMD SD40-2 $210.95 2019-03-01 154599
Micro-Trains 970 01 252 Southern Pacific 7306 Locomotive, Diesel, EMD SD40-2 $210.95 E:$149.98 2019-02-01 152817
Micro-Trains 970 01 252 Southern Pacific 7306 Locomotive, Diesel, EMD SD40-2 $210.95 E:$149.98 2019-03-01 154600
Micro-Trains 970 01 261 CSX Transportation CSX 8244 Locomotive, Diesel, EMD SD40-2 $215.95 E:$165.00 2019-04-01 158367
Micro-Trains 970 01 262 CSX Transportation CSX 8250 Locomotive, Diesel, EMD SD40-2 $215.95 E:$165.00 2019-04-01 158368
Micro-Trains 970 01 291 Burlington Northern Santa Fe BNSF 6821 Locomotive, Diesel, EMD SD40-2 $225.95 2019-07-01 162121
Micro-Trains 970 01 292 Burlington Northern Santa Fe BNSF 7888 Locomotive, Diesel, EMD SD40-2 $225.95 2019-07-01 162122
Micro-Trains 970 01 300 Union Pacific 3593 Locomotive, Diesel, EMD SD40-2 $249.95 2019-07-01 163339